• In Österreich
  • Länderverzeichnis
  • Für 7 Tage
  • Wassertemperatur
  • Satellitenkarten
  • Wetterkarte
  • News
  • Widgets
  • user-avatar
    Anmelden

    Stündliche Wetter Gjirokaster

    Heute, 15 August, Mittwoch

    Zeit Temperatur Niederschläge Wind Luftdruck Luftfeuchtigkeit
    00:00 +16°C° 0,1 mm 1 m/S 651 mmHg 73%
    01:00 +16°C° 0 mm 1 m/S 651 mmHg 73%
    02:00 +16°C° 0 mm 1 m/S 651 mmHg 73%
    03:00 +16°C° 0 mm 2 m/S 651 mmHg 73%
    04:00 +15°C° 0 mm 2 m/S 651 mmHg 72%
    05:00 +17°C° 0 mm 2 m/S 651 mmHg 68%
    06:00 +18°C° 0 mm 2 m/S 651 mmHg 64%
    07:00 +21°C° 0 mm 1 m/S 652 mmHg 58%
    08:00 +22°C° 0,1 mm 1 m/S 652 mmHg 52%
    09:00 +24°C° 0,1 mm 1 m/S 652 mmHg 47%
    10:00 +25°C° 0,1 mm 1 m/S 653 mmHg 42%
    11:00 +25°C° 0 mm 2 m/S 653 mmHg 42%
    12:00 +26°C° 0 mm 2 m/S 653 mmHg 42%
    13:00 +26°C° 0 mm 2 m/S 653 mmHg 42%
    14:00 +25°C° 0,1 mm 2 m/S 652 mmHg 46%
    15:00 +24°C° 0,1 mm 2 m/S 652 mmHg 50%
    16:00 +23°C° 0,1 mm 2 m/S 652 mmHg 54%
    17:00 +22°C° 0,6 mm 1 m/S 652 mmHg 59%
    18:00 +21°C° 0,6 mm 1 m/S 651 mmHg 65%
    19:00 +19°C° 0,6 mm 1 m/S 651 mmHg 71%
    20:00 +19°C° 0,7 mm 1 m/S 651 mmHg 74%
    21:00 +18°C° 0,7 mm 1 m/S 651 mmHg 76%
    22:00 +16°C° 0,7 mm 1 m/S 651 mmHg 78%
    23:00 +16°C° 0,4 mm 1 m/S 651 mmHg 79%

    Morgen, 16 August, Donnerstag

    Zeit Temperatur Niederschläge Wind Luftdruck Luftfeuchtigkeit
    00:00 +15°C° 0,4 mm 1 m/S 651 mmHg 79%
    01:00 +15°C° 0,4 mm 1 m/S 651 mmHg 80%
    02:00 +15°C° 0,2 mm 1 m/S 651 mmHg 80%
    03:00 +15°C° 0,2 mm 1 m/S 650 mmHg 79%
    04:00 +14°C° 0,2 mm 1 m/S 650 mmHg 79%
    05:00 +15°C° 0,1 mm 2 m/S 651 mmHg 76%
    06:00 +16°C° 0,1 mm 2 m/S 651 mmHg 72%
    07:00 +18°C° 0,1 mm 2 m/S 651 mmHg 69%
    08:00 +20°C° 0,3 mm 1 m/S 652 mmHg 62%
    09:00 +22°C° 0,3 mm 1 m/S 652 mmHg 55%
    10:00 +23°C° 0,3 mm 1 m/S 653 mmHg 48%
    11:00 +23°C° 0,2 mm 1 m/S 653 mmHg 47%
    12:00 +24°C° 0,2 mm 2 m/S 653 mmHg 47%
    13:00 +24°C° 0,2 mm 2 m/S 653 mmHg 46%
    14:00 +24°C° 0,2 mm 2 m/S 653 mmHg 48%
    15:00 +23°C° 0,2 mm 2 m/S 652 mmHg 51%
    16:00 +23°C° 0,2 mm 2 m/S 652 mmHg 53%
    17:00 +20°C° 0,2 mm 2 m/S 652 mmHg 58%
    18:00 +19°C° 0,2 mm 2 m/S 652 mmHg 62%
    19:00 +18°C° 0,2 mm 2 m/S 652 mmHg 67%
    20:00 +17°C° 0,1 mm 2 m/S 652 mmHg 68%
    21:00 +18°C° 0,1 mm 1 m/S 652 mmHg 69%
    22:00 +16°C° 0,1 mm 1 m/S 652 mmHg 70%
    23:00 +16°C° 0 mm 1 m/S 652 mmHg 70%

    übermorgen, 17 August, Freitag

    Zeit Temperatur Niederschläge Wind Luftdruck Luftfeuchtigkeit
    00:00 +15°C° 0 mm 1 m/S 652 mmHg 70%
    01:00 +15°C° 0 mm 1 m/S 651 mmHg 70%
    02:00 +15°C° 0 mm 1 m/S 651 mmHg 70%
    03:00 +15°C° 0 mm 1 m/S 651 mmHg 70%
    04:00 +14°C° 0 mm 1 m/S 651 mmHg 69%
    05:00 +16°C° 0 mm 1 m/S 652 mmHg 66%
    06:00 +18°C° 0 mm 1 m/S 652 mmHg 62%
    07:00 +19°C° 0 mm 1 m/S 652 mmHg 59%
    08:00 +21°C° 0 mm 1 m/S 653 mmHg 53%
    09:00 +23°C° 0 mm 1 m/S 654 mmHg 47%
    10:00 +25°C° 0 mm 1 m/S 654 mmHg 41%
    11:00 +25°C° 0 mm 2 m/S 654 mmHg 40%
    12:00 +26°C° 0 mm 2 m/S 654 mmHg 39%
    13:00 +26°C° 0 mm 3 m/S 654 mmHg 38%
    14:00 +26°C° 0 mm 3 m/S 654 mmHg 41%
    15:00 +25°C° 0 mm 2 m/S 653 mmHg 44%
    16:00 +24°C° 0 mm 2 m/S 653 mmHg 48%
    17:00 +23°C° 0 mm 2 m/S 653 mmHg 53%
    18:00 +20°C° 0 mm 2 m/S 653 mmHg 59%
    19:00 +19°C° 0 mm 2 m/S 652 mmHg 64%
    20:00 +18°C° 0,2 mm 2 m/S 653 mmHg 66%
    21:00 +18°C° 0,2 mm 1 m/S 653 mmHg 69%
    22:00 +18°C° 0,2 mm 1 m/S 653 mmHg 71%
    23:00 +18°C° 0,1 mm 1 m/S 652 mmHg 72%

    18 August, Samstag

    Zeit Temperatur Niederschläge Wind Luftdruck Luftfeuchtigkeit
    00:00 +16°C° 0,1 mm 1 m/S 652 mmHg 72%
    01:00 +16°C° 0,1 mm 1 m/S 652 mmHg 72%
    02:00 +16°C° 0,1 mm 1 m/S 652 mmHg 72%
    03:00 +16°C° 0,1 mm 1 m/S 652 mmHg 72%
    04:00 +16°C° 0,1 mm 1 m/S 652 mmHg 72%
    05:00 +18°C° 0,1 mm 1 m/S 652 mmHg 68%
    06:00 +19°C° 0,1 mm 1 m/S 653 mmHg 65%
    07:00 +20°C° 0,1 mm 1 m/S 653 mmHg 61%
    08:00 +22°C° 0,1 mm 1 m/S 654 mmHg 55%
    09:00 +24°C° 0,1 mm 1 m/S 654 mmHg 49%
    10:00 +26°C° 0,1 mm 1 m/S 654 mmHg 43%
    11:00 +26°C° 0 mm 2 m/S 654 mmHg 43%
    12:00 +26°C° 0 mm 2 m/S 654 mmHg 43%
    13:00 +26°C° 0 mm 3 m/S 654 mmHg 44%
    14:00 +25°C° 0,3 mm 3 m/S 654 mmHg 47%
    15:00 +24°C° 0,3 mm 3 m/S 653 mmHg 51%
    16:00 +22°C° 0,3 mm 3 m/S 653 mmHg 54%
    17:00 +21°C° 0,6 mm 3 m/S 653 mmHg 59%
    18:00 +20°C° 0,6 mm 3 m/S 653 mmHg 63%
    19:00 +19°C° 0,6 mm 3 m/S 653 mmHg 67%
    20:00 +18°C° 0,4 mm 3 m/S 653 mmHg 70%
    21:00 +18°C° 0,4 mm 3 m/S 653 mmHg 72%
    22:00 +17°C° 0,4 mm 2 m/S 653 mmHg 75%
    23:00 +17°C° 0 mm 2 m/S 653 mmHg 74%

    19 August, Sonntag

    Zeit Temperatur Niederschläge Wind Luftdruck Luftfeuchtigkeit
    00:00 +16°C° 0 mm 2 m/S 653 mmHg 74%
    01:00 +16°C° 0 mm 2 m/S 653 mmHg 73%
    02:00 +16°C° 0 mm 2 m/S 653 mmHg 72%
    03:00 +15°C° 0 mm 2 m/S 652 mmHg 72%
    04:00 +15°C° 0 mm 2 m/S 652 mmHg 71%
    05:00 +16°C° 0 mm 2 m/S 653 mmHg 68%
    06:00 +18°C° 0 mm 2 m/S 653 mmHg 64%
    07:00 +19°C° 0 mm 2 m/S 653 mmHg 61%
    08:00 +21°C° 0 mm 2 m/S 654 mmHg 54%
    09:00 +24°C° 0 mm 2 m/S 654 mmHg 47%
    10:00 +26°C° 0 mm 2 m/S 655 mmHg 40%
    11:00 +27°C° 0 mm 2 m/S 655 mmHg 38%
    12:00 +27°C° 0 mm 3 m/S 655 mmHg 37%
    13:00 +28°C° 0 mm 3 m/S 655 mmHg 35%
    14:00 +27°C° 0 mm 3 m/S 655 mmHg 40%
    15:00 +25°C° 0 mm 3 m/S 654 mmHg 44%
    16:00 +24°C° 0 mm 3 m/S 654 mmHg 49%
    17:00 +22°C° 0 mm 3 m/S 654 mmHg 51%
    18:00 +21°C° 0 mm 2 m/S 654 mmHg 54%
    19:00 +20°C° 0 mm 2 m/S 654 mmHg 56%
    20:00 +20°C° 0 mm 2 m/S 654 mmHg 56%
    21:00 +19°C° 0 mm 2 m/S 654 mmHg 57%
    22:00 +18°C° 0 mm 2 m/S 654 mmHg 57%
    23:00 +18°C° 0 mm 2 m/S 653 mmHg 57%

    20 August, Montag

    Zeit Temperatur Niederschläge Wind Luftdruck Luftfeuchtigkeit
    00:00 +18°C° 0 mm 2 m/S 653 mmHg 56%
    01:00 +18°C° 0 mm 2 m/S 653 mmHg 55%
    02:00 +17°C° 0 mm 2 m/S 653 mmHg 55%
    03:00 +17°C° 0 mm 2 m/S 653 mmHg 55%
    04:00 +17°C° 0 mm 2 m/S 653 mmHg 55%
    05:00 +18°C° 0 mm 2 m/S 653 mmHg 54%
    06:00 +19°C° 0 mm 2 m/S 654 mmHg 53%
    07:00 +20°C° 0 mm 2 m/S 654 mmHg 53%
    08:00 +23°C° 0 mm 2 m/S 655 mmHg 47%
    09:00 +25°C° 0 mm 1 m/S 655 mmHg 41%
    10:00 +26°C° 0 mm 1 m/S 656 mmHg 35%
    11:00 +27°C° 0 mm 2 m/S 656 mmHg 34%
    12:00 +27°C° 0 mm 2 m/S 656 mmHg 33%
    13:00 +28°C° 0 mm 3 m/S 656 mmHg 31%
    14:00 +27°C° 0 mm 3 m/S 655 mmHg 34%
    15:00 +26°C° 0 mm 3 m/S 655 mmHg 37%
    16:00 +26°C° 0 mm 3 m/S 655 mmHg 39%
    17:00 +24°C° 0 mm 3 m/S 655 mmHg 43%
    18:00 +23°C° 0 mm 2 m/S 654 mmHg 47%
    19:00 +20°C° 0 mm 2 m/S 654 mmHg 50%
    20:00 +19°C° 0 mm 2 m/S 654 mmHg 50%
    21:00 +19°C° 0 mm 2 m/S 654 mmHg 51%
    22:00 +18°C° 0 mm 2 m/S 654 mmHg 51%
    23:00 +18°C° 0 mm 2 m/S 654 mmHg 51%
    Mehr zeigen